Location: Krakow
(50.0830°N, 19.9170°E)
Time: 14:45:47
(UTC+01:00)

Explorer 11/Cluster Stage 4 - All Passes

Search period start: 04 December 2023 00:00
Search period end: 14 December 2023 00:00
Orbit: 465 x 1227 km, 28.8° (Epoch: 03 December)

Date Brightness Start Highest point End Pass type
(mag) Time Alt. Az. Time Alt. Az. Time Alt. Az.
08 Dec - 12:29:25 10° S 12:31:14 11° S 12:33:01 10° SSE daylight
08 Dec - 14:16:58 10° SSW 14:18:20 11° S 14:19:39 10° S daylight
09 Dec - 12:12:24 10° SSW 12:15:00 12° S 12:17:31 10° SSE daylight
09 Dec - 14:00:10 10° SSW 14:02:08 11° S 14:04:02 10° S daylight
10 Dec - 11:55:37 10° SSW 11:58:44 13° S 12:01:45 10° SSE daylight
10 Dec - 13:43:32 10° SSW 13:45:53 12° S 13:48:10 10° S daylight
11 Dec - 11:38:58 10° SSW 11:42:27 13° S 11:45:50 10° SSE daylight
11 Dec - 13:27:01 10° SSW 13:29:38 12° SSW 13:32:09 10° S daylight
12 Dec - 11:22:25 10° SSW 11:26:08 14° S 11:29:48 10° SSE daylight
12 Dec - 13:10:35 10° SSW 13:13:21 12° SSW 13:16:02 10° S daylight
13 Dec - 11:05:55 10° SSW 11:09:49 14° S 11:13:40 10° SSE daylight
13 Dec - 12:54:13 10° SW 12:57:02 12° SSW 12:59:46 10° S daylight
